AO-07 1 07530U 74089B 19156.84708156 -.00000036 00000-0 56379-4 0 9998 2 07530 101.7428 124.6400 0012370 013.9616 000.9004 12.53638359038678 UO-11 1 14781U 84021B 19156.88119188 .00000033 00000-0 10133-4 0 9990 2 14781 097.6115 182.2052 0008685 012.5755 347.5674 14.83088294875861 LO-19 1 20442U 90005G 19156.61145101 -.00000021 00000-0 87824-5 0 9995 2 20442 098.6480 098.6338 0011598 182.4654 177.6474 14.32926048534445 HUBBLE 1 20580U 90037B 19156.80058873 .00000377 00000-0 12028-4 0 9999 2 20580 028.4697 297.1813 0002719 350.1433 156.3934 15.09232210398851 MET-2/21 1 22782U 93055A 19156.67603219 .00000017 00000-0 19676-5 0 9991 2 22782 082.5478 173.4030 0021508 211.7812 286.4786 13.83817666300792 AO-27 1 22825U 93061C 19156.55609654 -.00000023 00000-0 92039-5 0 9994 2 22825 098.9025 144.8938 0009158 042.9646 317.2249 14.30059715339801 IO-26 1 22826U 93061D 19156.77067444 -.00000025 00000-0 83036-5 0 9993 2 22826 098.8965 145.1063 0009499 031.8125 328.3629 14.30393179340053 FO-29 1 24278U 96046B 19156.38734250 -.00000021 00000-0 17937-4 0 9997 2 24278 098.5351 311.6038 0349270 274.5425 081.5903 13.53091421125757 NOAA-15 1 25338U 98030A 19156.85590561 .00000075 00000-0 50242-4 0 9991 2 25338 098.7473 178.1450 0009234 281.3962 078.6180 14.25912342095160 GO-32 1 25397U 98043D 19156.89865983 -.00000014 00000-0 13129-4 0 9994 2 25397 098.6882 097.1981 0002428 080.5831 279.5622 14.23666088085836 ISS 1 25544U 98067A 19156.85124296 -.00013328 00000-0 -21638-3 0 9991 2 25544 051.6430 057.5606 0007964 016.5439 099.8918 15.51156960173491 NO-44 1 26931U 01043C 19156.77628175 -.00000042 00000-0 15741-4 0 9993 2 26931 067.0524 037.0091 0006532 279.8664 080.1700 14.30543599923053 SO-50 1 27607U 02058C 19156.19504336 -.00000041 00000-0 15123-4 0 9992 2 27607 064.5552 090.8600 0081760 259.1368 100.0525 14.75550067884913 CO-55 1 27844U 03031E 19156.49673411 .00000026 00000-0 31433-4 0 9995 2 27844 098.6838 164.9076 0011053 071.9857 288.2524 14.22179400826376 CO-57 1 27848U 03031J 19156.48511411 .00000018 00000-0 27878-4 0 9998 2 27848 098.6916 165.3934 0010991 082.1772 278.0653 14.21774220826230 RS-22 1 27939U 03042A 19156.88218130 .00000023 00000-0 12696-4 0 9995 2 27939 098.0383 292.9490 0014261 106.8355 253.4420 14.66782669838666 NOAA-18 1 28654U 05018A 19156.88509820 .00000065 00000-0 60354-4 0 9994 2 28654 099.0967 203.6621 0013823 209.8194 150.2190 14.12428631723616 CO-58 1 28895U 05043F 19156.86133957 .00000090 00000-0 26112-4 0 9993 2 28895 097.9574 300.0336 0017538 036.5502 323.6893 14.63665265725377 Falconsat-3 1 30776U 07006E 19156.49518085 .00001662 00000-0 47591-4 0 9993 2 30776 035.4338 174.8950 0002793 333.8749 026.1836 15.36141302678657 CO-65 1 32785U 08021C 19156.77693945 .00000137 00000-0 20438-4 0 9990 2 32785 097.5491 157.1007 0011806 310.6816 049.3375 14.88305249601691 AAUSAT2 1 32788U 08021F 19156.72942556 .00000722 00000-0 71489-4 0 9995 2 32788 097.4973 173.0346 0010276 239.0699 120.9512 14.94715468602880 DO-64 1 32789U 08021G 19156.73613858 .00000998 00000-0 70774-4 0 9998 2 32789 097.4654 206.7924 0012875 162.2458 197.9222 15.06926326604919 CO-66 1 32791U 08021J 19156.81712386 .00000277 00000-0 33513-4 0 9996 2 32791 097.5278 163.0993 0011723 282.6157 077.3750 14.90813285602118 RS-30 1 32953U 08025A 19156.92812253 .00000021 00000-0 75656-4 0 9997 2 32953 082.5006 152.7027 0019598 153.2148 206.9951 12.43089896500721 PRISM 1 33493U 09002B 19156.82574334 -.00000135 00000-0 -62272-5 0 9996 2 33493 098.1225 077.2925 0013974 223.2798 136.7325 14.96641238563218 NOAA-19 1 33591U 09005A 19156.93750062 .00000039 00000-0 46536-4 0 9999 2 33591 099.1792 147.7527 0014858 056.7576 303.5016 14.12355960531840 TISAT-1 1 36799U 10035E 19156.86511967 .00000143 00000-0 20502-4 0 9999 2 36799 098.1542 308.5935 0013512 124.8041 235.4450 14.91094956482656 JUGNU 1 37839U 11058B 19156.80660753 .00000301 00000-0 18763-4 0 9995 2 37839 019.9620 052.9106 0019020 184.7725 226.1444 14.12651755395320 SRMSAT 1 37841U 11058D 19156.90446198 .00000285 00000-0 11778-4 0 9994 2 37841 019.9714 108.8267 0011927 057.0542 336.0047 14.10632968394796 AO-71 1 37854U 11061E 19156.74200929 .00000702 00000-0 43724-4 0 9994 2 37854 101.7029 048.3376 0161021 104.2736 257.6417 15.06377190414598 HRBE 1 37855U 11061F 19156.90529727 .00001194 00000-0 67404-4 0 9990 2 37855 101.7162 045.9414 0173764 114.6942 247.2472 15.05382424414382 ALMASAT-1 1 38078U 12006B 19156.85519067 .00021177 41605-5 12214-3 0 9990 2 38078 069.4257 303.0527 0166379 281.5450 241.5148 15.62438026395489 HORYU-2 1 38340U 12025D 19156.89612572 .00000135 00000-0 27756-4 0 9990 2 38340 098.3299 195.1025 0012065 158.8723 201.2986 14.75714583368865 RS-40 1 38735U 12041C 19156.74506908 .00000015 00000-0 35262-4 0 9993 2 38735 082.4765 236.1502 0015764 264.8065 095.1224 12.42578302310947 BEESAT-3 1 39135U 13015F 19156.82554791 .00000908 00000-0 54894-4 0 9995 2 39135 064.8685 080.2373 0019131 324.1240 035.8600 15.17437747337904 BEESAT-2 1 39136U 13015G 19156.79177247 .00000646 00000-0 42566-4 0 9991 2 39136 064.8694 084.1301 0018754 303.6557 056.2780 15.16868712337828 ZACUBE-1 1 39417U 13066B 19156.86901840 .00000159 00000-0 26250-4 0 9992 2 39417 097.5628 171.0913 0060554 076.4709 284.3241 14.81109037299141 TRITON-1 1 39427U 13066M 19156.91222919 .00000155 00000-0 32855-4 0 9996 2 39427 097.6751 135.0809 0113066 205.7365 153.8189 14.67834478296276 GOMX-1 1 39430U 13066Q 19156.93709535 .00000156 00000-0 37779-4 0 9997 2 39430 097.7452 114.3283 0150152 294.8603 063.7060 14.59247475294749 LO-74 1 39440U 13066AA 19156.93716575 .00000159 00000-0 28928-4 0 9999 2 39440 097.6017 156.1280 0081573 125.7539 235.1293 14.75847519296891 AO-73 1 39444U 13066AE 19156.87665726 .00000213 00000-0 32362-4 0 9995 2 39444 097.5609 173.0312 0059611 070.6155 290.1489 14.81926317297446 SPROUT 1 39770U 14029E 19156.71457091 .00000297 00000-0 38978-4 0 9995 2 39770 097.8834 260.0921 0009938 122.2640 237.9551 14.87321404272909 DUCHIFAT-1 1 40021U 14033M 19156.31997977 .00000298 00000-0 36227-4 0 9995 2 40021 097.9243 080.8693 0014469 093.3291 266.9582 14.90617027269550 NANOSATCBR1 1 40024U 14033Q 19156.74270780 .00000276 00000-0 34658-4 0 9993 2 40024 097.9139 078.7491 0013724 095.2498 265.0285 14.89833034268995 EO-79 1 40025U 14033R 19156.73001786 .00000235 00000-0 31024-4 0 9990 2 40025 097.9065 076.4346 0013892 100.6188 259.6594 14.88934409268888 DTUSAT-2 1 40030U 14033W 19156.72252335 .00000207 00000-0 28252-4 0 9991 2 40030 097.8985 074.6092 0013389 096.4993 263.7749 14.88528153268815 EO-80 1 40032U 14033Y 19156.45868067 .00000209 00000-0 28466-4 0 9997 2 40032 097.8992 074.3472 0013326 097.9978 262.2751 14.88469973268758 ANTELSAT 1 40034U 14033AA 19156.19758045 .00000157 00000-0 30585-4 0 9991 2 40034 097.7626 023.9475 0059622 138.8849 221.6876 14.74096296266155 VELOX-1 1 40057U 14034E 19156.74314424 .00000239 00000-0 41005-4 0 9997 2 40057 098.2321 279.5515 0009656 277.3011 082.7103 14.77656907265853 DAURIA DX 1 1 40071U 14037C 19156.85528397 .00000087 00000-0 18739-4 0 9993 2 40071 098.4239 310.0845 0007188 269.2337 090.8058 14.81267440265354 UKUBE-1 1 40074U 14037F 19156.75217840 .00000200 00000-0 31126-4 0 9995 2 40074 098.4347 317.9758 0002618 262.0049 098.0882 14.84043578265734 HODOYOSHI-1 1 40299U 14070B 19156.84651022 .00000387 00000-0 19170-4 0 9996 2 40299 097.3492 236.8667 0014615 087.0537 050.5803 15.23349200254310 CHUBUSAT-1 1 40300U 14070C 19156.78553405 .00000545 00000-0 26716-4 0 9998 2 40300 097.3256 231.2910 0021127 098.6570 049.3296 15.22066553254051 QSAT-EOS 1 40301U 14070D 19156.85227550 .00001323 00000-0 53919-4 0 9996 2 40301 097.3271 234.3087 0027662 084.0924 009.0649 15.25879542254339 FIREBIRD FU3 1 40377U 15003B 19156.50863072 .00001282 00000-0 54262-4 0 9999 2 40377 099.1123 134.0505 0128122 134.0509 227.1358 15.18702301239914 FIREBIRD FU4 1 40378U 15003C 19156.89117893 .00001430 00000-0 59932-4 0 9999 2 40378 099.1126 134.5868 0128354 132.6759 228.5370 15.18710274239976 GRIFEX 1 40379U 15003D 19156.85394717 .00000850 00000-0 40417-4 0 9991 2 40379 099.1116 128.6885 0135970 150.9348 209.9538 15.15421008239631 NO-84 1 40654U 15025D 19156.33771199 .00004441 00000 0 68921-4 0 6353 2 40654 54.9913 233.6558 0134970 292.4003 66.2817 15.46737984110385 NO-83 1 40655U 15025E 19156.34549919 .00050566 11380-4 27398-3 0 7651 2 40655 54.9659 121.6232 0060674 3.1615 357.0055 15.78015413111616 DEORBITSAIL 1 40719U 15032E 19156.91767609 .00000320 00000-0 52875-4 0 9995 2 40719 097.9100 049.0012 0016404 352.8626 007.2348 14.76727553210376 NUDT-PHONESAT 1 40900U 15049B 19156.76271157 .00001372 00000-0 61784-4 0 9993 2 40900 097.4371 166.2253 0011370 225.9930 221.1007 15.22727282205696 XW-2A 1 40903U 15049E 19156.74161647 .00001280 00000-0 32205-4 0 9990 2 40903 097.3384 199.4319 0013358 184.9172 311.0959 15.41790851208256 XW-2C 1 40906U 15049H 19156.86499025 .00000592 00000-0 34587-4 0 9990 2 40906 097.4664 159.1559 0013313 241.6993 235.8398 15.15655824205059 XW-2D 1 40907U 15049J 19156.84468931 .00000264 00000-0 17276-4 0 9993 2 40907 097.4646 158.8138 0012539 238.8890 241.3715 15.15839067205061 LILACSAT-2 1 40908U 15049K 19156.84172633 -.00000070 00000-0 -21976-6 0 9996 2 40908 097.4774 157.6894 0014281 246.1108 234.9826 15.13787006204861 XW-2E 1 40909U 15049L 19156.91757220 .00000705 00000-0 38253-4 0 9993 2 40909 097.4584 161.6461 0012131 232.8479 214.6142 15.17748061205253 XW-2F 1 40910U 15049M 19156.81938834 .00000769 00000-0 41976-4 0 9992 2 40910 097.4612 160.7400 0013152 231.7789 252.1029 15.17262379205069 XW-2B 1 40911U 15049N 19156.87621709 .00000614 00000-0 35622-4 0 9999 2 40911 097.4663 159.4886 0012363 239.8873 237.3935 15.15772355204962 DCBB 1 40912U 15049P 19156.86950432 .00000829 00000-0 42151-4 0 9990 2 40912 097.4491 164.3899 0013817 212.3319 269.2406 15.19568506205364 TW-1C 1 40926U 15051B 19156.84894839 .00008934 00000-0 13219-3 0 9991 2 40926 097.1363 203.0421 0010083 067.0351 019.2830 15.55464299208168 TW-1A 1 40928U 15051D 19156.82808546 .00002396 00000-0 60550-4 0 9998 2 40928 097.1462 188.4182 0012906 115.4797 330.7620 15.40692670207198 IO-86 1 40931U 15052B 19155.30000984 .00000770 00000-0 18055-4 0 9992 2 40931 5.9954 159.2137 0014070 311.8593 48.0427 14.76608624199133 LQSat 1 40958U 15057A 19156.79370875 .00000077 00000-0 19618-4 0 9995 2 40958 097.8977 226.3360 0016796 284.4636 075.4684 14.73080209196913 AO-85 1 40967U 15058D 19156.51417375 .00000074 00000 0 26314-4 0 7112 2 40967 64.7764 198.3930 0201680 206.9800 152.0732 14.75947379105795 ATHENOXAT-1 1 41168U 15077C 19156.72455191 .00001488 00000-0 43225-4 0 9997 2 41168 014.9887 311.1067 0011688 273.5457 086.3527 15.13604704192010 ChubuSat-2 1 41338U 16012B 19156.84983711 .00000243 00000-0 12196-4 0 9994 2 41338 031.0023 226.3821 0013894 335.8276 024.1707 15.00147671180982 ChubuSat-3 1 41339U 16012C 19156.62124333 .00000256 00000-0 13150-4 0 9993 2 41339 031.0095 225.9466 0013702 341.4448 018.5687 15.00323744180941 Horyu-4 1 41340U 16012D 19156.87241313 .00000337 00000-0 18877-4 0 9991 2 41340 031.0040 215.8819 0014074 001.5343 358.5334 15.01258068181083 OUFTI-1 1 41458U 16025C 19156.89681084 .00001168 00000-0 63099-4 0 9999 2 41458 098.1019 243.0892 0167591 040.5809 320.7769 15.05785824170642 e-st@r-II 1 41459U 16025D 19156.77729909 .00001481 00000-0 79357-4 0 9998 2 41459 098.1014 242.6317 0168507 042.1452 319.2572 15.05429150170603 AAUSAT4 1 41460U 16025E 19156.70261493 .00001491 00000-0 78318-4 0 9999 2 41460 098.0976 243.7640 0158528 035.3744 325.7859 15.07295062170719 LO-87 1 41557U 16033B 19156.87424731 .00000977 00000-0 39398-4 0 9992 2 41557 097.4177 244.4486 0013386 350.4881 009.6102 15.27178134168137 NuSat2 1 41558U 16033C 19156.85927034 .00001037 00000-0 39372-4 0 9995 2 41558 097.4202 245.4379 0012475 352.1529 007.9514 15.29083292168179 Lapan A3 1 41603U 16040E 19156.87118500 .00000153 00000-0 10271-4 0 9991 2 41603 097.3616 215.9004 0015134 083.9795 003.4671 15.19712119163798 Swayam 1 41607U 16040J 19156.85614225 .00001285 00000-0 57048-4 0 9998 2 41607 097.3664 219.1423 0015210 078.7186 281.5759 15.23256355163928 Pratham 1 41783U 16059A 19156.80983027 .00000046 00000-0 18031-4 0 9990 2 41783 098.0683 216.6755 0034820 065.7668 294.7166 14.62993697143667 AlSat 1N 1 41789U 16059G 19156.80946920 .00000051 00000-0 18733-4 0 9992 2 41789 098.0710 218.6410 0029582 056.0017 304.3978 14.64241843143765 ScatSat 1 41790U 16059H 19156.75497622 .00000001 00000-0 11257-4 0 9997 2 41790 098.2101 202.1482 0019616 086.5991 273.7447 14.50879913142451 TY-1 1 41844U 16066D 19156.83831197 .00000545 00000-0 25247-4 0 9990 2 41844 097.4044 164.3613 0013600 230.4329 251.6982 15.24255442142732 Pegasus-1 1 41846U 16066F 19156.51504401 .00000220 00000-0 44917-4 0 9997 2 41846 098.7122 196.5016 0366336 277.5967 078.3761 14.37562322134669 CAS-2T 1 41847U 16066G 19156.66641050 .00000038 00000-0 17245-4 0 9997 2 41847 098.7066 197.1843 0364742 273.7221 082.2337 14.37984985135120 EO-88 1 42017U 17008BX 19156.84100874 .00001233 00000-0 51541-4 0 9993 2 42017 097.4037 224.0669 0005524 199.1301 160.9730 15.25485776127966 ZA-AeroSat 1 42713U 98067LU 19151.03730059 .02928871 12128-4 58594-3 0 9990 2 42713 51.6172 356.2792 0012791 275.7272 84.2292 16.30383675116521 NJUST-1 1 42722U 98067MB 19156.72048615 .00126635 17697-4 28595-3 0 9991 2 42722 051.6330 337.4093 0003089 203.8488 219.3827 15.97382291116365 nSIGHT1 1 42726U 98067MF 19156.79866394 .00020753 00000-0 16714-3 0 9994 2 42726 051.6368 014.6383 0005500 126.7818 233.3685 15.70873457115790 Aoxiang-1 1 42735U 98067MQ 19156.76922230 .00281430 46956-4 39881-3 0 9998 2 42735 051.6242 332.9434 0005481 253.7025 185.8613 16.05095019117550 CAS-4B 1 42759U 17034B 19156.90885523 .00000055 00000-0 16874-4 0 9994 2 42759 043.0197 300.9885 0010324 175.9430 323.3493 15.09577852108909 CAS-4A 1 42761U 17034D 19156.87210253 .00000186 00000-0 24838-4 0 9999 2 42761 043.0198 300.7318 0010895 177.2695 319.0776 15.09656048108892 UCLSat 1 42765U 17036A 19156.85424466 .00000933 00000-0 42959-4 0 9990 2 42765 097.3519 215.1384 0009715 275.7765 084.2364 15.22708955109107 NIUSat 1 42766U 17036B 19156.74213796 .00000687 00000-0 33944-4 0 9991 2 42766 097.3517 213.4848 0013941 265.3556 094.6088 15.21077610108261 LituanicaSAT 2 1 42768U 17036D 19156.11056663 .00001445 00000-0 64823-4 0 9995 2 42768 097.3555 214.0047 0013343 267.2382 092.7327 15.22732465108247 Aalto 1 1 42775U 17036L 19156.70489415 .00000577 00000-0 28804-4 0 9997 2 42775 097.3504 213.7713 0012278 265.3166 094.6668 15.21312994108238 URSA MAIOR 1 42776U 17036M 19156.73254390 .00000622 00000-0 30723-4 0 9997 2 42776 097.3514 213.9414 0012089 265.1026 094.8830 15.21442994108241 Max Valier Sat 1 42778U 17036P 19156.70829105 .00000707 00000-0 33966-4 0 9994 2 42778 097.3553 214.6601 0010586 269.7178 090.2846 15.21987444108263 Pegasus 1 42784U 17036V 19156.15350035 .00000800 00000-0 37530-4 0 9996 2 42784 097.3524 214.2781 0010323 279.2043 080.8025 15.22456029108208 NUDATSat 1 42787U 17036Y 19156.88238887 .00001334 00000-0 58963-4 0 9995 2 42787 097.3542 215.6451 0009791 277.3676 082.6447 15.23402337108198 SUCHAI 1 1 42788U 17036Z 19156.82134378 .00001067 00000-0 48503-4 0 9992 2 42788 097.3528 215.2214 0009877 275.5399 084.4711 15.22866231108395 SKCUBE 1 42789U 17036AA 19156.83628031 .00000999 00000-0 45737-4 0 9997 2 42789 097.3524 215.1816 0009742 275.6119 084.4007 15.22769061108314 VZLUSAT 1 1 42790U 17036AB 19156.73784485 .00001265 00000-0 56074-4 0 9997 2 42790 097.3538 215.5083 0009280 274.9322 085.0855 15.23402848108323 VENTA 1 1 42791U 17036AC 19156.81046817 .00000879 00000-0 40550-4 0 9999 2 42791 097.3523 215.2078 0009404 276.4783 083.5383 15.22785228108307 Robusta 1B 1 42792U 17036AD 19156.83424612 .00001030 00000-0 46811-4 0 9991 2 42792 097.3525 215.3235 0009320 276.4932 083.5244 15.22933185108335 D-SAT 1 42794U 17036AF 19156.11785900 .00000089 00000-0 13173-4 0 9992 2 42794 097.5407 201.4182 0126477 186.1798 173.7868 14.91087021106319 TechnoSat 1 42829U 17042E 19156.72631516 .00000191 00000-0 24637-4 0 9999 2 42829 097.5656 050.1463 0015758 101.8525 258.4462 14.90968174103006 TOMSK-TPU 120 1 42910U 98067MZ 19156.97401427 .00042004 00000-0 19552-3 0 9997 2 42910 051.6357 355.5666 0004927 134.2639 013.9901 15.82903019103017 TANYUSHA 1 1 42911U 98067NA 19156.80795378 .00107832 15695-4 28964-3 0 9999 2 42911 051.6232 346.1334 0003506 181.4330 255.0983 15.94275200103108 TANYUSHA 2 1 42912U 98067NB 19156.74499269 .00067717 00000-0 24147-3 0 9999 2 42912 051.6365 352.0160 0003454 156.0541 263.6028 15.88239258103047 TNS 0-2 1 42914U 98067ND 19156.86490619 .00057696 00000-0 25945-3 0 9996 2 42914 051.6354 356.7562 0003497 137.9553 222.1719 15.83508101102960 QIKCOM-1 1 42983U 98067NF 19156.88185068 .00002870 00000-0 42966-4 0 9990 2 42983 051.6408 044.5391 0004797 081.0497 279.1038 15.58761405091343 AO-91 1 43017U 17073E 19156.73956763 .00000232 00000-0 23864-4 0 9995 2 43017 097.7237 078.6068 0257685 200.3150 158.7664 14.78536627083345 EcAMSat 1 43019U 98067NG 19156.80630829 .00005405 00000-0 68942-4 0 9992 2 43019 051.6416 040.3246 0005211 064.3491 295.8040 15.61093782173716 PICSAT 1 43132U 18004X 19156.76482538 .00000963 00000-0 43309-4 0 9992 2 43132 097.4890 224.6073 0008280 305.9096 054.1372 15.23532651077533 AO-92 1 43137U 18004AC 19156.42709689 .00000760 00000-0 34919-4 0 9991 2 43137 097.4882 224.2587 0007924 309.8495 050.2044 15.23431482077482 TianYi 2 1 43155U 18008A 19156.89776784 .00000274 00000-0 20112-4 0 9996 2 43155 097.4866 229.7071 0018263 014.0198 074.1538 15.11114409075895 Zhou Enlai 1 43156U 18008B 19156.87486108 .00001021 00000-0 65507-4 0 9991 2 43156 097.4916 229.5805 0015353 012.7101 078.0356 15.10622436075862 TianYi 6 1 43158U 18008D 19156.79249128 .00000317 00000-0 23209-4 0 9993 2 43158 097.4865 229.0013 0014351 010.1484 126.4548 15.10214274075819 S-Net G 1 43186U 18014G 19156.78874835 -.00000365 00000-0 -26882-4 0 9994 2 43186 097.7108 065.4301 0012369 052.8304 307.4045 14.96639200073203 S-Net H 1 43187U 18014H 19156.78857739 -.00000365 00000-0 -26896-4 0 9994 2 43187 097.7107 065.4186 0012366 052.8419 307.3930 14.96639373073201 S-Net J 1 43188U 18014J 19156.78836735 -.00000362 00000-0 -26659-4 0 9992 2 43188 097.7109 065.4347 0012366 052.9406 307.2944 14.96639052073208 S-Net K 1 43189U 18014K 19156.78869677 -.00000371 00000-0 -27415-4 0 9995 2 43189 097.7106 065.4163 0012360 052.7244 307.5103 14.96638773071751 FMN 1 1 43192U 18015A 19156.92557172 .00001345 00000-0 57967-4 0 9995 2 43192 097.3970 284.8346 0016089 344.8249 015.2496 15.24216880074374 Shaonian Xing 1 43199U 18015H 19156.94092459 .00000986 00000-0 42560-4 0 9999 2 43199 097.3747 284.0008 0017434 355.6613 004.4467 15.24743914074427 1KUNS-PF 1 43466U 98067NP 19156.83183004 .00018399 00000-0 18327-3 0 9996 2 43466 051.6382 039.6815 0001760 098.4277 261.6918 15.65741854060907 UBAKUSAT 1 43467U 98067NQ 19156.68614591 .00009820 00000-0 11378-3 0 9998 2 43467 051.6384 043.9569 0002648 046.7300 313.3915 15.62532089060843 Irazu 1 43468U 98067NR 19156.84354359 .00025548 00000-0 22660-3 0 9991 2 43468 051.6373 036.7404 0001869 109.9174 250.2024 15.68398448160931 EnduroSat One 1 43551U 98067NZ 19156.83456845 .00014759 00000-0 16779-3 0 9992 2 43551 051.6385 045.6963 0006763 099.0910 261.0850 15.62539683051063 EQUISat 1 43552U 98067PA 19156.86897644 .00011450 00000-0 13746-3 0 9998 2 43552 051.6398 046.6930 0007029 097.8470 262.3321 15.61390881051012 UiTMSat 1 1 43589U 98067PD 19156.87285068 .00012529 00000-0 14945-3 0 9990 2 43589 051.6370 047.4234 0006397 104.9390 255.2312 15.61458423046748 Maya 1 1 43590U 98067PE 19156.10011639 .00011472 00000-0 13738-3 0 9994 2 43590 051.6373 051.2655 0006554 101.5313 258.6417 15.61455084046558 Bhutan 1 1 43591U 98067PF 19156.09127109 .00010948 00000-0 13112-3 0 9996 2 43591 051.6386 051.2248 0006709 102.7106 257.4638 15.61510231046554 SiriusSat 1 1 43595U 98067PG 19156.83896499 .00012456 00000-0 15264-3 0 9993 2 43595 051.6373 048.6995 0004303 071.0832 289.0627 15.60763924045832 SiriusSat 2 1 43596U 98067PH 19156.86802487 .00011790 00000-0 14571-3 0 9991 2 43596 051.6384 048.9255 0004852 070.6878 289.4640 15.60602255045839 Tanusha-3 1 43597U 98067PJ 19156.87775137 .00015324 00000-0 17745-3 0 9997 2 43597 051.6367 047.4344 0004557 085.5287 274.6228 15.62036761045850 SurfSat 1 43614U 18070B 19156.77552902 .00001765 00000-0 48080-4 0 9996 2 43614 093.0232 358.3485 0016114 005.7994 354.3442 15.37474449040425 CP-7 DAVE 1 43615U 18070C 19156.78061303 .00001681 00000-0 45905-4 0 9998 2 43615 093.0235 358.3519 0016274 005.1394 355.0023 15.37399562040427 ELFIN-B 1 43616U 18070D 19156.79345114 .00002313 00000-0 61896-4 0 9995 2 43616 093.0196 358.2731 0017185 008.5474 351.6068 15.37987862040435 ELFIN-A 1 43617U 18070E 19156.78765499 .00003033 00000-0 81026-4 0 9994 2 43617 093.0251 358.4758 0016185 006.0383 354.1063 15.38029277040431 STARS-Me Mother 1 43640U 98067PQ 19156.85734208 .00008145 00000-0 11173-3 0 9990 2 43640 051.6382 051.8456 0006080 056.0795 304.0775 15.58318099037723 CubeBel 1 1 43666U 18083E 19156.90018698 .00000606 00000-0 33568-4 0 9999 2 43666 097.5198 181.4662 0013757 229.4538 251.2835 15.17550847033342 Changshagaoxin 1 43669U 18083H 19156.91906202 .00000594 00000-0 33662-4 0 9991 2 43669 097.5069 180.8311 0009862 218.0951 141.9585 15.16768035033291 Ten-Koh 1 43677U 18084G 19157.46868977 .00000528 00000-0 60258-4 0 9996 2 43677 97.8502 271.2792 0015204 326.9769 33.0418 14.90165739 32799 PO-101 1 43678U 18084H 19157.19495336 -.00000145 00000-0 -87203-5 0 9999 2 43678 97.8493 271.4971 0009808 353.1221 6.9928 14.91550049 32785 IRVINE 01 1 43693U 18088D 19156.72300712 .00001772 00000-0 77186-4 0 9994 2 43693 085.0338 326.6816 0016504 237.0427 122.9228 15.21321418031397 QO-100 1 43700U 18090A 19156.89792637 .00000146 00000-0 00000-0 0 9996 2 43700 000.0135 313.2360 0002525 159.4004 130.4248 01.00271913001928 Reaktor Hello World 1 43743U 18096AA 19156.85483515 .00000919 00000-0 37821-4 0 9990 2 43743 097.4607 226.8656 0019184 025.7811 065.3259 15.26579153028776 MinXSS-2 1 43758U 18099A 19156.90621684 -.00000041 00000-0 15949-5 0 9991 2 43758 097.7456 229.1096 0016019 015.9433 344.2289 14.95398954027523 AO-95 1 43770U 18099N 19156.84991823 -.00000090 00000-0 -29754-5 0 9997 2 43770 097.7456 228.8825 0015103 022.5590 337.6292 14.94755619027506 RANGE-B 1 43772U 18099Q 19156.90674159 .00000016 00000-0 68160-5 0 9996 2 43772 097.7511 229.0789 0014375 010.4965 349.6553 14.94860393027503 RANGE-A 1 43773U 18099R 19156.77603959 -.00000191 00000-0 -12287-4 0 9996 2 43773 097.7404 228.7082 0013794 011.0255 349.1265 14.94795784027483 MOVE-II 1 43780U 18099Y 19156.88636116 .00000748 00000-0 73531-4 0 9992 2 43780 097.7447 228.9515 0013992 021.8107 338.3707 14.95042442027495 SNUSat 2 1 43782U 18099AA 19156.81406413 .00000593 00000-0 59344-4 0 9996 2 43782 097.7453 228.9196 0012919 011.6906 348.4612 14.95042317027499 SnugLite 1 43784U 18099AC 19156.67096833 .00000485 00000-0 49439-4 0 9997 2 43784 097.7417 228.7163 0015426 018.7753 341.4033 14.95120254027483 ITASat 1 1 43786U 18099AE 19156.73603163 .00000405 00000-0 42104-4 0 9990 2 43786 097.7470 228.9127 0015505 017.3717 342.8031 14.95127291027491 EAGLET 1 1 43790U 18099AJ 19156.82307533 .00000510 00000-0 51217-4 0 9999 2 43790 097.7464 229.0848 0013987 023.1764 337.0084 14.95506499027204 ESEO 1 43792U 18099AL 19156.75370044 .00000450 00000-0 45816-4 0 9991 2 43792 097.7444 228.9801 0013762 020.4793 339.6977 14.95503175027256 CSIM 1 43793U 18099AM 19156.80877750 .00000823 00000-0 79097-4 0 9996 2 43793 097.7403 228.9432 0013247 018.9565 341.2146 14.95674808027236 Astrocast 0.1 1 43798U 18099AS 19156.72725873 .00000008 00000-0 59279-5 0 9996 2 43798 097.7446 229.0237 0012397 003.7163 356.4148 14.95725239027486 JO-97 1 43803U 18099AX 19156.85574508 .00000061 00000-0 10759-4 0 9992 2 43803 097.7428 228.9592 0015517 017.4751 342.7000 14.95256246027502 Suomi 100 1 43804U 18099AY 19156.85527282 .00000007 00000-0 58810-5 0 9991 2 43804 097.7426 228.9574 0015592 017.5540 342.6216 14.95256544027511 Al Farabi 2 1 43805U 18099AZ 19156.91804867 .00000001 00000-0 53421-5 0 9993 2 43805 097.7430 229.0311 0015639 017.5242 342.6515 14.95310591027525 PWSat 2 1 43814U 18099BJ 19157.21325621 .00018063 00000-0 14825-2 0 9992 2 43814 97.7757 230.1174 0005605 48.0907 312.0825 14.99252607 26987 CHOMPTT 1 43855U 18104G 19156.81418407 .00000684 00000-0 27721-4 0 9995 2 43855 085.0375 064.9523 0019339 010.4564 349.7076 15.22355063026061 ISAT 1 43879U 18111D 19156.88346349 .00000581 00000-0 56924-4 0 9994 2 43879 097.7191 065.0753 0014715 069.5828 290.6971 14.95975226024021 UWE-4 1 43880U 18111E 19156.79035725 -.00000236 00000-0 -15772-4 0 9994 2 43880 097.7202 065.0638 0013832 069.8715 290.3994 14.96219522024017 Sparrow 1 43881U 18111F 19156.78553721 -.00000178 00000-0 -10645-4 0 9994 2 43881 097.7207 065.0780 0014044 068.8237 291.4483 14.96268014024010 Lume 1 1 43908U 18111AJ 19156.80245890 .00000937 00000-0 40940-4 0 9994 2 43908 097.2912 062.4047 0022893 040.5572 319.7366 15.24304384024483 FO-98 1 43933U 19003B 19156.93181890 .00000539 00000-0 26769-4 0 9997 2 43933 097.2824 214.9062 0019495 126.5891 354.7666 15.21608595021114 FO-99 1 43937U 19003F 19156.88807284 .00001045 00000-0 46269-4 0 9997 2 43937 097.2780 215.1524 0026029 114.8589 331.1472 15.23533479021136 Delphini 1 1 44030U 98067PW 19156.89268213 .00009340 00000-0 13685-3 0 9994 2 44030 051.6394 055.0814 0005595 098.1281 262.0346 15.56316072019556 MYSat 1 1 44045U 18092F 19156.82893248 .00001763 00000-0 62489-4 0 9993 2 44045 051.6415 073.1811 0012665 042.8875 317.3109 15.34867649017269 AstroCast 0.2 1 44083U 19018F 19156.71790709 .00000391 00000-0 20540-4 0 9998 2 44083 097.4694 216.8046 0015425 058.1093 302.1641 15.21362506009940 AISTechSat 3 1 44103U 19018AB 19156.73151973 .00000756 00000-0 35502-4 0 9996 2 44103 097.4574 216.8169 0015331 075.0181 285.2751 15.22601806009952 AISat 1 1 44104U 19018AC 19156.78927950 .00000888 00000-0 31259-4 0 9999 2 44104 097.5104 218.0717 0060750 111.9729 248.7982 15.30438927010031 /EX